Home > Time Zones > World Clock > Weather > Yemen > Sana > Past weeks

Flag for Yemen Weather past 2 weeks in Sana, Yemen

Now
79 °F

Passing clouds.


Feels Like: 77 °F
Forecast: 47 / 78 °F
Wind: 14 mph from East

Location: Sana'A Airport

Current Time: Sep 20, 2014 at 3:24:09 PM

Latest Report: Sep 20, 2014 at 3:00 PM


Visibility: N/A

Pressure: 30.18 "Hg

Humidity: 12%

Dew point: 23 °F

Location of SanaLocation

Historic Weather in Sana — Graph

°F

Sana temperature yesterday

Maximum temperature yesterday: 81 °F (at 3:00 PM)
Minimum temperature yesterday: 55 °F (at 6:00 AM)
Average temperature yesterday: 70 °F

Past Weeks' High & Low Weather Summary

 TemperatureHumidityPressure
High84 °F (Sep 6, 1:00 PM)77% (Sep 9, 6:00 AM)30.36 "Hg (Sep 9, 6:00 AM)
Low55 °F (Sep 19, 6:00 AM)13% (Sep 8, 1:00 PM)30.09 "Hg (Sep 5, 3:00 PM)
Average71 °F34%30.24 "Hg
* Reported Sep 5 2:00 PM — Sep 20 2:00 PM, Sana, Weather by CustomWeather, © 2014

Note: Actual official high and low records may vary slightly from our data, if they occured in-between our weather recording intervals... More about our weather records

Advertising

Sana weather history for previous 24 hours

 ConditionsComfort  
Time TempWeatherWind HumidityBarometerVisibility
2:00 PM
Sep 20
79 °FPassing clouds.8 mph15%30.21 "HgN/A
1:00 PM77 °FPassing clouds.12 mph14%30.24 "HgN/A
12:00 PM75 °FPassing clouds.10 mph16%30.27 "HgN/A
11:00 AM75 °FPassing clouds.9 mph16%30.30 "HgN/A
10:00 AM73 °FPassing clouds.9 mph17%30.33 "HgN/A
9:00 AM72 °FSunny.2 mph19%30.33 "Hg10 mi
8:00 AM66 °FPassing clouds.5 mph22%30.33 "HgN/A
7:00 AM59 °FSunny.3 mph27%30.30 "Hg10 mi
6:00 AM55 °FPassing clouds.3 mph28%30.30 "HgN/A
5:00 AM55 °FClear.2 mph28%30.27 "Hg10 mi
4:00 AM57 °FPassing clouds.2 mph27%30.27 "HgN/A
3:00 AM59 °FPassing clouds.2 mph27%30.27 "HgN/A
2:00 AM61 °FPassing clouds.2 mph25%30.27 "HgN/A
1:00 AM61 °FPassing clouds.2 mph25%30.30 "HgN/A
12:00 AM61 °FPassing clouds.5 mph25%30.30 "HgN/A
11:00 PM
Sep 19
68 °FPassing clouds.5 mph23%30.30 "HgN/A
10:00 PM70 °FPassing clouds.7 mph21%30.30 "HgN/A
9:00 PM70 °FPassing clouds.7 mph23%30.30 "HgN/A
8:00 PM72 °FPassing clouds.8 mph22%30.30 "HgN/A
7:00 PM73 °FPassing clouds.10 mph19%30.27 "HgN/A
6:00 PM75 °FScattered clouds.15 mph18%30.27 "HgN/A
5:00 PM77 °FScattered clouds.15 mph17%30.24 "HgN/A
4:00 PM79 °FPassing clouds.15 mph17%30.24 "HgN/A
3:00 PM81 °FScattered clouds.14 mph16%30.24 "HgN/A
Weather by CustomWeather, © 2014

See weather overviewHow to use our weather pages